Location: Czekanka
(50.4925°N, 19.2643°E)
Time: 04:14:41
(UTC+00:00)

ADEOS II - Pass Details

Date: 24 September 2024
Orbit: 795 x 798 km, 98.7° (Epoch: 14 October)

Event Time Altitude Azimuth Distance (km) Brightness Sun altitude
Rises 00:46:29 0° 19° (NNE) 3,311 6.2 -32.8°
Reaches altitude 10° 00:48:55 10° 25° (NNE) 2,377 5.3 -32.6°
Enters shadow 00:53:20 45° 76° (ENE) 1,075 2.9 -32.1°
